QPF
0.04 0.03 0.04 0.03 0.04 0.06 0.09 0.11 0.12 0.10 0.09 0.07 0.08 0.09 0.11 0.13 0.10 0.10 0.14 0.17 0.15 0.16 0.14 0.10 0.07 0.05 0.05 0.07 0.05 0.04 0.03 0.05 0.06 0.07 0.07 0.07 0.06 0.04 0.05 0.07 0.04 0.03 0.05
0.02 0.01 0.02 0.03 0.04 0.04 0.06 0.07 0.07 0.05 0.06 0.05 0.05 0.08 0.11 0.10 0.08 0.09 0.12 0.15 0.12 0.12 0.11 0.09 0.06 0.04 0.06 0.05 0.04 0.04 0.03 0.03 0.05 0.08 0.09 0.07 0.05 0.04 0.04 0.04 0.04 0.04 0.05
0.02 0.01 0.02 0.03 0.04 0.06 0.07 0.05 0.05 0.05 0.05 0.05 0.05 0.07 0.09 0.08 0.08 0.09 0.11 0.11 0.11 0.12 0.10 0.08 0.06 0.04 0.05 0.04 0.04 0.04 0.04 0.03 0.05 0.08 0.07 0.04 0.04 0.04 0.04 0.03 0.03 0.04 0.03
0.02 0.01 0.03 0.07 0.09 0.13 0.10 0.06 0.05 0.06 0.05 0.04 0.06 0.07 0.08 0.08 0.08 0.10 0.11 0.10 0.12 0.12 0.09 0.07 0.06 0.05 0.04 0.03 0.05 0.05 0.05 0.05 0.06 0.09 0.06 0.03 0.02 0.04 0.03 0.03 0.04 0.04 0.03
0.01 0.01 0.01 0.04 0.09 0.13 0.13 0.09 0.05 0.04 0.04 0.04 0.05 0.06 0.06 0.06 0.08 0.10 0.09 0.09 0.12 0.12 0.11 0.08 0.06 0.05 0.04 0.03 0.04 0.05 0.05 0.06 0.09 0.09 0.05 0.01 0.01 0.03 0.03 0.04 0.03 0.03 0.03
0.01 0.01 0.01 0.01 0.02 0.04 0.05 0.04 0.04 0.03 0.03 0.04 0.04 0.05 0.05 0.05 0.08 0.11 0.08 0.08 0.12 0.12 0.11 0.08 0.06 0.05 0.04 0.03 0.04 0.04 0.05 0.07 0.08 0.07 0.04 0.01 0.01 0.02 0.02 0.02 0.01 0.01 0.02
0.04 0.04 0.03 0.03 0.02 0.03 0.03 0.03 0.03 0.02 0.02 0.03 0.03 0.04 0.05 0.06 0.08 0.12 0.11 0.09 0.11 0.14 0.12 0.08 0.06 0.05 0.04 0.03 0.04 0.04 0.05 0.08 0.08 0.10 0.06 0.02 0.01 0.02 0.02 0.02 0.01 0.01 0.01
0.04 0.07 0.06 0.05 0.03 0.03 0.02 0.02 0.02 0.02 0.03 0.04 0.05 0.04 0.06 0.11 0.13 0.18 0.16 0.14 0.13 0.13 0.11 0.07 0.04 0.03 0.02 0.03 0.03 0.04 0.05 0.07 0.07 0.08 0.06 0.04 0.03 0.03 0.02 0.01 0.01 0.01 0.01
0.02 0.03 0.04 0.06 0.06 0.04 0.03 0.03 0.03 0.04 0.05 0.07 0.09 0.09 0.16 0.25 0.27 0.25 0.18 0.14 0.13 0.12 0.10 0.07 0.04 0.02 0.02 0.02 0.02 0.03 0.05 0.08 0.08 0.07 0.09 0.06 0.03 0.02 0.02 0.01 0.01 0.01 0.01
0.02 0.02 0.04 0.07 0.07 0.07 0.05 0.05 0.06 0.05 0.06 0.09 0.10 0.11 0.21 0.24 0.22 0.17 0.12 0.10 0.11 0.12 0.09 0.06 0.04 0.03 0.02 0.01 0.02 0.03 0.05 0.08 0.07 0.06 0.07 0.04 0.02 0.02 0.02 0.01 0.01 0.01 0.01
0.01 0.02 0.02 0.04 0.07 0.09 0.09 0.09 0.09 0.07 0.08 0.09 0.08 0.10 0.12 0.12 0.10 0.07 0.07 0.07 0.08 0.07 0.06 0.06 0.05 0.03 0.02 0.02 0.03 0.03 0.04 0.05 0.06 0.05 0.07 0.03 0.03 0.03 0.03 0.01 0.01 0.01 0.01
0.02 0.03 0.02 0.04 0.07 0.08 0.08 0.10 0.10 0.10 0.12 0.11 0.10 0.10 0.08 0.08 0.07 0.06 0.08 0.08 0.08 0.08 0.07 0.06 0.05 0.03 0.01 0.01 0.02 0.03 0.06 0.06 0.04 0.05 0.08 0.05 0.04 0.04 0.03 0.02 0.01 0.01 0.01
0.01 0.01 0.02 0.03 0.05 0.05 0.08 0.12 0.12 0.14 0.16 0.12 0.08 0.05 0.05 0.09 0.11 0.07 0.08 0.07 0.07 0.06 0.04 0.05 0.04 0.03 0.03 0.02 0.03 0.06 0.06 0.05 0.04 0.03 0.05 0.05 0.04 0.04 0.04 0.02 0.02 0.02 0.02
0.01 0.01 0.01 0.02 0.03 0.04 0.06 0.09 0.11 0.14 0.12 0.09 0.06 0.05 0.04 0.10 0.13 0.08 0.07 0.05 0.04 0.03 0.02 0.02 0.02 0.04 0.06 0.05 0.06 0.06 0.04 0.04 0.03 0.04 0.04 0.04 0.04 0.05 0.04 0.03 0.03 0.03 0.03
0.00 0.00 0.01 0.01 0.02 0.02 0.04 0.06 0.09 0.10 0.08 0.06 0.06 0.05 0.04 0.05 0.08 0.07 0.05 0.04 0.04 0.03 0.02 0.02 0.04 0.04 0.05 0.05 0.07 0.06 0.04 0.04 0.02 0.03 0.04 0.08 0.07 0.04 0.04 0.04 0.03 0.02 0.02
0.00 0.00 0.01 0.01 0.01 0.01 0.01 0.03 0.07 0.08 0.08 0.07 0.06 0.05 0.05 0.05 0.06 0.06 0.04 0.03 0.03 0.03 0.04 0.03 0.04 0.04 0.04 0.04 0.05 0.05 0.05 0.04 0.03 0.04 0.04 0.05 0.06 0.03 0.03 0.04 0.04 0.03 0.03
0.00 0.00 0.00 0.01 0.01 0.00 0.01 0.02 0.03 0.05 0.07 0.06 0.07 0.05 0.07 0.07 0.05 0.05 0.04 0.03 0.04 0.03 0.03 0.03 0.04 0.04 0.04 0.04 0.04 0.04 0.04 0.04 0.04 0.03 0.04 0.04 0.04 0.05 0.05 0.05 0.05 0.05 0.06
0.00 0.00 0.00 0.00 0.00 0.00 0.00 0.01 0.02 0.04 0.04 0.04 0.04 0.05 0.06 0.06 0.06 0.06 0.05 0.04 0.05 0.04 0.03 0.05 0.06 0.07 0.06 0.05 0.03 0.03 0.03 0.03 0.03 0.02 0.03 0.04 0.05 0.03 0.05 0.07 0.06 0.06 0.07
0.00 0.00 0.01 0.01 0.00 0.00 0.00 0.00 0.02 0.04 0.03 0.03 0.05 0.05 0.05 0.05 0.06 0.06 0.04 0.04 0.05 0.05 0.04 0.06 0.08 0.06 0.06 0.04 0.03 0.02 0.03 0.03 0.03 0.02 0.03 0.03 0.04 0.05 0.05 0.08 0.07 0.06 0.05
0.00 0.00 0.00 0.01 0.01 0.00 0.01 0.01 0.01 0.02 0.02 0.03 0.06 0.05 0.04 0.04 0.06 0.06 0.05 0.04 0.04 0.04 0.05 0.07 0.07 0.04 0.04 0.04 0.04 0.05 0.04 0.03 0.04 0.04 0.04 0.04 0.05 0.08 0.07 0.08 0.08 0.05 0.06
0.00 0.00 0.00 0.00 0.00 0.01 0.01 0.01 0.01 0.01 0.02 0.02 0.04 0.04 0.03 0.03 0.05 0.04 0.04 0.04 0.04 0.04 0.03 0.06 0.05 0.05 0.04 0.04 0.07 0.08 0.07 0.07 0.06 0.05 0.06 0.08 0.09 0.11 0.09 0.07 0.08 0.08 0.08
0.01 0.00 0.00 0.00 0.00 0.00 0.01 0.01 0.01 0.01 0.02 0.01 0.02 0.04 0.02 0.03 0.03 0.03 0.04 0.03 0.03 0.03 0.03 0.04 0.05 0.05 0.04 0.06 0.08 0.09 0.07 0.10 0.09 0.06 0.07 0.07 0.06 0.08 0.10 0.09 0.09 0.09 0.12
0.00 0.00 0.00 0.00 0.00 0.00 0.01 0.01 0.01 0.01 0.01 0.01 0.02 0.03 0.02 0.02 0.02 0.02 0.02 0.03 0.03 0.02 0.02 0.03 0.05 0.05 0.05 0.05 0.06 0.07 0.07 0.06 0.05 0.06 0.05 0.06 0.08 0.11 0.15 0.15 0.14 0.15 0.17
0.00 0.00 0.00 0.00 0.00 0.01 0.01 0.01 0.01 0.01 0.01 0.01 0.01 0.01 0.02 0.03 0.03 0.02 0.01 0.02 0.02 0.02 0.01 0.02 0.03 0.03 0.04 0.05 0.07 0.07 0.06 0.05 0.04 0.06 0.06 0.06 0.08 0.10 0.13 0.17 0.24 0.23 0.18
0.00 0.00 0.01 0.00 0.00 0.01 0.01 0.01 0.01 0.01 0.01 0.01 0.01 0.01 0.02 0.03 0.03 0.03 0.01 0.02 0.02 0.02 0.01 0.01 0.02 0.03 0.04 0.05 0.06 0.06 0.07 0.07 0.05 0.04 0.04 0.05 0.07 0.08 0.08 0.11 0.13 0.11 0.09
0.01 0.01 0.01 0.00 0.00 0.01 0.00 0.00 0.01 0.01 0.01 0.02 0.02 0.02 0.02 0.02 0.02 0.02 0.02 0.01 0.01 0.02 0.02 0.02 0.02 0.02 0.03 0.04 0.05 0.06 0.07 0.07 0.06 0.06 0.04 0.03 0.04 0.05 0.06 0.08 0.09 0.08 0.07
MSLP
1011.81 1011.21 1010.83 1010.70 1010.81 1011.09 1011.45 1011.81 1012.11 1012.32 1012.47 1012.60 1012.74 1012.92 1013.16 1013.42 1013.68 1013.90 1014.05 1014.13 1014.15 1014.15 1014.17 1014.24 1014.37 1014.55 1014.78 1015.02 1015.24 1015.45 1015.64 1015.80 1015.97 1016.16 1016.36 1016.57 1016.79 1016.99 1017.16 1017.28 1017.36 1017.41 1017.43
1011.56 1011.09 1010.81 1010.77 1010.94 1011.25 1011.63 1011.98 1012.27 1012.48 1012.62 1012.75 1012.91 1013.12 1013.39 1013.70 1014.00 1014.26 1014.44 1014.53 1014.56 1014.55 1014.54 1014.57 1014.66 1014.80 1014.99 1015.20 1015.41 1015.60 1015.78 1015.95 1016.12 1016.32 1016.52 1016.74 1016.97 1017.17 1017.33 1017.46 1017.54 1017.59 1017.62
1011.30 1010.97 1010.81 1010.86 1011.09 1011.44 1011.81 1012.16 1012.42 1012.60 1012.72 1012.84 1012.99 1013.21 1013.49 1013.81 1014.13 1014.41 1014.61 1014.72 1014.76 1014.75 1014.74 1014.76 1014.82 1014.94 1015.10 1015.29 1015.48 1015.68 1015.86 1016.04 1016.23 1016.44 1016.66 1016.90 1017.12 1017.33 1017.50 1017.63 1017.72 1017.77 1017.81
1011.08 1010.89 1010.85 1010.99 1011.28 1011.64 1012.02 1012.34 1012.57 1012.72 1012.81 1012.89 1013.02 1013.22 1013.49 1013.80 1014.12 1014.40 1014.60 1014.72 1014.77 1014.78 1014.78 1014.81 1014.88 1014.99 1015.15 1015.33 1015.53 1015.72 1015.91 1016.11 1016.32 1016.55 1016.80 1017.05 1017.28 1017.49 1017.67 1017.79 1017.89 1017.95 1018.01
1010.94 1010.88 1010.95 1011.16 1011.48 1011.86 1012.22 1012.51 1012.71 1012.82 1012.88 1012.94 1013.04 1013.21 1013.45 1013.73 1014.02 1014.28 1014.47 1014.60 1014.66 1014.69 1014.73 1014.78 1014.88 1015.02 1015.19 1015.38 1015.57 1015.77 1015.98 1016.19 1016.43 1016.68 1016.95 1017.21 1017.45 1017.67 1017.83 1017.96 1018.05 1018.13 1018.20
1010.91 1010.95 1011.09 1011.35 1011.69 1012.06 1012.39 1012.65 1012.82 1012.91 1012.95 1013.00 1013.09 1013.23 1013.43 1013.68 1013.92 1014.14 1014.31 1014.43 1014.51 1014.58 1014.65 1014.76 1014.90 1015.07 1015.26 1015.47 1015.67 1015.88 1016.09 1016.31 1016.56 1016.83 1017.11 1017.38 1017.63 1017.84 1018.00 1018.12 1018.21 1018.29 1018.38
1011.00 1011.09 1011.27 1011.55 1011.88 1012.21 1012.51 1012.74 1012.89 1012.97 1013.02 1013.07 1013.16 1013.30 1013.48 1013.68 1013.89 1014.06 1014.21 1014.31 1014.40 1014.50 1014.62 1014.78 1014.97 1015.18 1015.40 1015.61 1015.82 1016.02 1016.23 1016.45 1016.71 1016.98 1017.27 1017.54 1017.79 1018.00 1018.15 1018.26 1018.34 1018.43 1018.53
1011.16 1011.28 1011.47 1011.73 1012.03 1012.32 1012.58 1012.78 1012.91 1013.00 1013.08 1013.16 1013.28 1013.43 1013.60 1013.78 1013.95 1014.09 1014.20 1014.29 1014.38 1014.51 1014.66 1014.86 1015.09 1015.34 1015.58 1015.80 1016.00 1016.19 1016.38 1016.59 1016.83 1017.11 1017.39 1017.67 1017.92 1018.12 1018.26 1018.36 1018.44 1018.53 1018.63
1011.37 1011.49 1011.67 1011.90 1012.15 1012.39 1012.60 1012.76 1012.89 1013.00 1013.11 1013.25 1013.41 1013.60 1013.79 1013.96 1014.10 1014.21 1014.29 1014.36 1014.45 1014.58 1014.77 1014.99 1015.25 1015.52 1015.76 1015.97 1016.16 1016.32 1016.49 1016.68 1016.90 1017.17 1017.45 1017.73 1017.98 1018.19 1018.33 1018.43 1018.50 1018.58 1018.69
1011.56 1011.69 1011.86 1012.06 1012.25 1012.44 1012.59 1012.72 1012.84 1012.97 1013.12 1013.31 1013.53 1013.76 1013.98 1014.16 1014.29 1014.38 1014.43 1014.48 1014.57 1014.70 1014.89 1015.13 1015.40 1015.67 1015.91 1016.10 1016.26 1016.39 1016.53 1016.69 1016.89 1017.15 1017.43 1017.72 1017.98 1018.20 1018.35 1018.46 1018.53 1018.61 1018.71
1011.71 1011.86 1012.03 1012.21 1012.36 1012.48 1012.58 1012.67 1012.78 1012.92 1013.10 1013.34 1013.61 1013.89 1014.13 1014.33 1014.46 1014.53 1014.57 1014.61 1014.68 1014.81 1015.00 1015.24 1015.51 1015.77 1015.99 1016.16 1016.28 1016.38 1016.49 1016.62 1016.80 1017.05 1017.33 1017.64 1017.92 1018.16 1018.33 1018.46 1018.55 1018.63 1018.73
1011.78 1011.98 1012.17 1012.34 1012.46 1012.54 1012.59 1012.64 1012.72 1012.85 1013.06 1013.32 1013.62 1013.92 1014.19 1014.40 1014.54 1014.61 1014.65 1014.68 1014.75 1014.87 1015.06 1015.30 1015.56 1015.80 1016.01 1016.15 1016.25 1016.32 1016.39 1016.50 1016.67 1016.91 1017.19 1017.51 1017.81 1018.08 1018.30 1018.46 1018.57 1018.67 1018.77
1011.78 1012.04 1012.27 1012.45 1012.55 1012.60 1012.61 1012.63 1012.68 1012.79 1012.98 1013.25 1013.55 1013.86 1014.14 1014.36 1014.50 1014.59 1014.63 1014.67 1014.75 1014.89 1015.08 1015.32 1015.57 1015.80 1015.99 1016.12 1016.20 1016.25 1016.30 1016.39 1016.54 1016.76 1017.05 1017.37 1017.70 1018.01 1018.26 1018.46 1018.60 1018.72 1018.83
1011.71 1012.03 1012.30 1012.50 1012.61 1012.65 1012.64 1012.62 1012.64 1012.72 1012.89 1013.13 1013.41 1013.71 1013.98 1014.20 1014.35 1014.46 1014.53 1014.60 1014.71 1014.87 1015.08 1015.32 1015.58 1015.81 1016.00 1016.12 1016.19 1016.22 1016.26 1016.33 1016.46 1016.67 1016.94 1017.27 1017.60 1017.93 1018.21 1018.45 1018.64 1018.79 1018.91
1011.57 1011.94 1012.25 1012.47 1012.60 1012.64 1012.62 1012.60 1012.60 1012.65 1012.78 1012.98 1013.23 1013.49 1013.74 1013.95 1014.12 1014.25 1014.36 1014.48 1014.64 1014.84 1015.08 1015.35 1015.62 1015.87 1016.06 1016.18 1016.25 1016.28 1016.31 1016.37 1016.48 1016.65 1016.90 1017.20 1017.52 1017.85 1018.16 1018.43 1018.65 1018.83 1018.98
1011.39 1011.77 1012.10 1012.34 1012.49 1012.55 1012.56 1012.54 1012.54 1012.58 1012.68 1012.83 1013.02 1013.24 1013.45 1013.66 1013.84 1014.01 1014.17 1014.36 1014.58 1014.84 1015.13 1015.44 1015.73 1015.99 1016.19 1016.33 1016.41 1016.45 1016.47 1016.51 1016.59 1016.72 1016.92 1017.17 1017.45 1017.76 1018.06 1018.33 1018.58 1018.79 1018.97
1011.18 1011.56 1011.88 1012.12 1012.29 1012.38 1012.43 1012.45 1012.47 1012.51 1012.58 1012.69 1012.84 1013.00 1013.18 1013.37 1013.56 1013.77 1014.00 1014.26 1014.55 1014.88 1015.22 1015.56 1015.88 1016.16 1016.38 1016.53 1016.62 1016.67 1016.70 1016.72 1016.76 1016.84 1016.97 1017.15 1017.36 1017.61 1017.88 1018.14 1018.39 1018.62 1018.82
1010.99 1011.31 1011.59 1011.83 1012.01 1012.14 1012.24 1012.32 1012.38 1012.44 1012.51 1012.60 1012.69 1012.81 1012.95 1013.12 1013.33 1013.57 1013.86 1014.19 1014.56 1014.94 1015.33 1015.70 1016.04 1016.33 1016.56 1016.73 1016.84 1016.90 1016.93 1016.94 1016.94 1016.97 1017.02 1017.10 1017.23 1017.39 1017.60 1017.82 1018.06 1018.29 1018.51
1010.81 1011.06 1011.29 1011.51 1011.70 1011.87 1012.04 1012.18 1012.30 1012.41 1012.48 1012.55 1012.61 1012.68 1012.78 1012.93 1013.15 1013.42 1013.76 1014.15 1014.57 1015.00 1015.42 1015.81 1016.16 1016.45 1016.69 1016.86 1016.99 1017.07 1017.10 1017.10 1017.08 1017.05 1017.02 1017.01 1017.04 1017.10 1017.22 1017.38 1017.58 1017.80 1018.03
1010.67 1010.85 1011.02 1011.21 1011.40 1011.62 1011.84 1012.06 1012.25 1012.40 1012.50 1012.55 1012.58 1012.61 1012.68 1012.81 1013.01 1013.31 1013.68 1014.11 1014.57 1015.03 1015.46 1015.85 1016.19 1016.47 1016.70 1016.88 1017.02 1017.12 1017.17 1017.18 1017.14 1017.07 1016.97 1016.88 1016.80 1016.76 1016.78 1016.86 1017.01 1017.20 1017.41
1010.57 1010.69 1010.81 1010.97 1011.16 1011.41 1011.69 1011.98 1012.23 1012.43 1012.55 1012.60 1012.60 1012.60 1012.63 1012.72 1012.92 1013.22 1013.61 1014.06 1014.53 1015.00 1015.43 1015.80 1016.11 1016.37 1016.58 1016.76 1016.91 1017.03 1017.11 1017.14 1017.11 1017.02 1016.88 1016.71 1016.54 1016.41 1016.33 1016.33 1016.40 1016.55 1016.74
1010.48 1010.58 1010.67 1010.80 1011.00 1011.28 1011.60 1011.94 1012.25 1012.48 1012.62 1012.67 1012.65 1012.61 1012.60 1012.67 1012.84 1013.13 1013.52 1013.97 1014.45 1014.90 1015.31 1015.65 1015.93 1016.15 1016.34 1016.52 1016.68 1016.83 1016.94 1017.01 1017.00 1016.92 1016.76 1016.54 1016.31 1016.10 1015.94 1015.86 1015.87 1015.96 1016.12
1010.38 1010.48 1010.57 1010.69 1010.90 1011.19 1011.55 1011.93 1012.27 1012.53 1012.68 1012.72 1012.68 1012.61 1012.57 1012.61 1012.76 1013.03 1013.41 1013.85 1014.31 1014.74 1015.12 1015.42 1015.65 1015.84 1016.01 1016.18 1016.36 1016.53 1016.69 1016.80 1016.84 1016.78 1016.63 1016.41 1016.15 1015.89 1015.67 1015.53 1015.48 1015.53 1015.65
1010.22 1010.35 1010.46 1010.60 1010.82 1011.12 1011.50 1011.90 1012.27 1012.54 1012.70 1012.73 1012.68 1012.59 1012.52 1012.53 1012.66 1012.91 1013.27 1013.69 1014.13 1014.53 1014.87 1015.13 1015.33 1015.49 1015.64 1015.80 1015.99 1016.20 1016.40 1016.56 1016.65 1016.64 1016.53 1016.33 1016.07 1015.80 1015.56 1015.38 1015.29 1015.30 1015.39
1009.94 1010.13 1010.28 1010.45 1010.68 1011.01 1011.40 1011.81 1012.19 1012.48 1012.64 1012.67 1012.61 1012.50 1012.42 1012.41 1012.52 1012.75 1013.09 1013.49 1013.90 1014.27 1014.58 1014.82 1014.99 1015.12 1015.25 1015.41 1015.61 1015.84 1016.08 1016.29 1016.43 1016.48 1016.42 1016.26 1016.04 1015.80 1015.57 1015.39 1015.30 1015.29 1015.36
1009.52 1009.78 1009.98 1010.18 1010.44 1010.78 1011.19 1011.61 1012.00 1012.29 1012.46 1012.50 1012.45 1012.34 1012.26 1012.24 1012.34 1012.55 1012.87 1013.24 1013.63 1013.98 1014.26 1014.47 1014.62 1014.74 1014.86 1015.02 1015.22 1015.47 1015.73 1015.98 1016.17 1016.27 1016.27 1016.18 1016.02 1015.83 1015.65 1015.51 1015.45 1015.45 1015.53
Thickness
5770 5773 5774 5774 5773 5773 5773 5773 5774 5774 5774 5774 5773 5773 5773 5772 5770 5769 5769 5768 5767 5767 5766 5766 5765 5765 5764 5763 5761 5760 5759 5758 5758 5757 5756 5755 5754 5753 5751 5750 5749 5747 5746
5773 5773 5773 5772 5772 5772 5772 5772 5772 5772 5772 5772 5772 5771 5771 5770 5769 5768 5767 5766 5766 5765 5765 5764 5764 5763 5763 5761 5760 5759 5758 5757 5756 5756 5755 5754 5753 5752 5750 5749 5748 5746 5745
5774 5773 5772 5771 5771 5771 5771 5771 5771 5771 5771 5770 5770 5770 5769 5768 5767 5767 5766 5765 5764 5764 5763 5763 5762 5761 5761 5760 5759 5758 5757 5755 5755 5755 5754 5753 5752 5751 5749 5748 5747 5745 5745
5774 5773 5771 5770 5770 5770 5770 5770 5770 5769 5769 5769 5768 5768 5768 5767 5766 5765 5764 5764 5763 5762 5762 5761 5760 5760 5759 5758 5757 5756 5755 5755 5754 5753 5752 5752 5751 5750 5748 5747 5746 5745 5744
5774 5773 5772 5771 5770 5769 5769 5769 5768 5768 5768 5768 5767 5767 5766 5766 5765 5764 5763 5763 5762 5761 5760 5759 5759 5759 5757 5757 5756 5755 5754 5753 5753 5752 5751 5751 5750 5749 5748 5746 5745 5744 5743
5774 5773 5772 5771 5770 5769 5769 5768 5768 5767 5767 5767 5767 5766 5765 5764 5764 5763 5762 5761 5761 5760 5759 5758 5757 5757 5756 5755 5754 5753 5753 5752 5752 5751 5750 5750 5749 5748 5747 5746 5745 5744 5743
5773 5773 5772 5771 5770 5769 5768 5768 5768 5767 5767 5767 5767 5766 5765 5764 5763 5762 5761 5761 5760 5759 5758 5757 5756 5756 5755 5755 5754 5753 5752 5752 5751 5751 5750 5749 5749 5748 5747 5746 5744 5743 5742
5776 5774 5772 5771 5770 5769 5768 5768 5767 5767 5767 5767 5767 5765 5764 5763 5762 5761 5760 5760 5759 5759 5757 5757 5756 5755 5755 5754 5753 5752 5752 5752 5751 5750 5749 5749 5748 5748 5746 5745 5744 5743 5742
5777 5774 5772 5771 5770 5768 5768 5767 5767 5766 5766 5766 5765 5763 5762 5762 5761 5760 5760 5759 5759 5758 5757 5756 5756 5755 5754 5754 5753 5752 5753 5752 5751 5750 5750 5749 5749 5747 5746 5745 5744 5742 5741
5776 5774 5772 5771 5770 5768 5768 5767 5766 5765 5765 5764 5763 5762 5761 5760 5760 5759 5759 5759 5758 5757 5757 5756 5755 5755 5754 5754 5753 5753 5753 5752 5751 5751 5750 5749 5749 5747 5746 5745 5743 5742 5741
5774 5773 5772 5771 5770 5769 5768 5767 5766 5765 5764 5763 5762 5761 5760 5759 5759 5759 5758 5758 5757 5757 5756 5755 5755 5754 5754 5754 5753 5753 5752 5752 5751 5750 5750 5750 5749 5747 5746 5745 5744 5742 5741
5773 5773 5773 5772 5770 5769 5768 5767 5765 5764 5763 5762 5762 5761 5760 5759 5759 5758 5758 5757 5757 5757 5756 5755 5754 5754 5753 5753 5753 5753 5752 5752 5751 5750 5750 5750 5749 5748 5747 5745 5744 5742 5741
5779 5777 5776 5774 5772 5770 5769 5767 5765 5764 5763 5762 5761 5761 5760 5759 5758 5758 5758 5757 5756 5756 5755 5755 5754 5753 5753 5752 5752 5752 5752 5752 5752 5751 5751 5751 5750 5749 5747 5746 5744 5742 5741
5782 5781 5779 5778 5775 5773 5771 5768 5766 5764 5763 5763 5762 5761 5760 5759 5759 5758 5758 5757 5756 5756 5755 5754 5754 5753 5753 5752 5752 5752 5752 5753 5752 5752 5752 5752 5751 5750 5748 5746 5745 5743 5741
5785 5783 5782 5781 5778 5776 5772 5770 5768 5767 5766 5765 5764 5762 5761 5760 5760 5759 5758 5757 5756 5755 5755 5754 5754 5753 5753 5753 5753 5753 5753 5754 5753 5753 5753 5752 5751 5750 5749 5747 5746 5744 5742
5790 5787 5785 5783 5781 5778 5775 5772 5771 5769 5768 5766 5765 5764 5763 5762 5761 5760 5759 5757 5756 5756 5756 5755 5754 5754 5753 5754 5753 5753 5754 5754 5754 5754 5753 5753 5752 5751 5750 5748 5747 5745 5743
5794 5791 5788 5786 5784 5780 5777 5775 5773 5771 5769 5768 5767 5766 5765 5764 5763 5761 5760 5759 5758 5758 5757 5756 5755 5754 5753 5754 5753 5754 5754 5754 5754 5754 5754 5753 5752 5751 5750 5749 5747 5746 5744
5798 5794 5792 5790 5786 5782 5780 5777 5775 5773 5772 5770 5769 5768 5767 5766 5765 5763 5761 5760 5760 5759 5758 5756 5755 5754 5753 5752 5752 5753 5754 5755 5755 5755 5754 5753 5753 5752 5751 5750 5748 5746 5745
5803 5798 5794 5792 5788 5785 5782 5779 5777 5775 5773 5772 5771 5770 5769 5768 5766 5764 5763 5762 5761 5760 5759 5758 5755 5754 5751 5752 5752 5753 5754 5755 5755 5755 5755 5754 5753 5752 5752 5750 5749 5747 5746
5807 5803 5798 5794 5791 5788 5784 5780 5777 5775 5774 5774 5772 5771 5770 5769 5767 5765 5763 5763 5761 5759 5757 5757 5755 5754 5753 5752 5752 5752 5753 5755 5755 5755 5755 5755 5754 5753 5752 5751 5749 5748 5747
5808 5804 5800 5796 5793 5790 5785 5780 5776 5773 5774 5774 5774 5773 5771 5770 5768 5767 5765 5763 5761 5759 5757 5757 5755 5753 5751 5751 5748 5746 5749 5753 5754 5755 5755 5755 5754 5753 5752 5751 5749 5748 5746
5810 5807 5803 5800 5797 5794 5790 5786 5782 5779 5777 5776 5776 5774 5773 5771 5769 5768 5765 5763 5762 5759 5757 5756 5754 5751 5750 5750 5745 5740 5737 5741 5749 5755 5755 5754 5754 5753 5752 5751 5749 5748 5746
5813 5811 5809 5804 5801 5798 5794 5789 5785 5780 5777 5775 5774 5774 5774 5772 5770 5768 5767 5764 5762 5760 5757 5756 5754 5751 5747 5748 5749 5742 5735 5732 5739 5747 5751 5753 5752 5751 5751 5750 5749 5747 5745
5818 5817 5813 5808 5804 5800 5797 5791 5786 5780 5775 5776 5776 5775 5775 5773 5771 5769 5767 5765 5763 5761 5759 5757 5757 5754 5750 5746 5747 5748 5745 5743 5737 5737 5744 5748 5749 5749 5749 5749 5748 5746 5745
5823 5819 5815 5810 5806 5802 5799 5794 5789 5785 5782 5780 5778 5776 5775 5774 5773 5771 5768 5766 5764 5761 5760 5758 5757 5755 5753 5749 5747 5746 5745 5744 5742 5736 5734 5739 5743 5746 5748 5747 5747 5745 5744
5824 5820 5816 5810 5806 5804 5800 5796 5792 5788 5784 5780 5777 5775 5774 5773 5772 5771 5770 5767 5765 5762 5760 5759 5757 5755 5753 5751 5749 5747 5744 5742 5739 5737 5733 5734 5736 5741 5745 5745 5744 5743 5743